Location: York
(31.8935°S, 116.7682°E)
Time: 18:17:11
(UTC+08:00)

Hubble Space Telescope - Pass Details

Date: 21 May 2021
Orbit: 535 x 539 km, 28.5° (Epoch: 17 June)

Event Time Altitude Azimuth Distance (km) Brightness Sun altitude
Rises 20:14:58 0° 271° (W) 2,693 5.3 -36.7°
Reaches altitude 10° 20:17:22 10° 280° (W) 1,800 4.2 -37.2°
Enters shadow 20:17:27 11° 281° (W) 1,768 4.1 -37.2°
